Location: Gleizolles
(44.4833°N, 6.7667°E)
Time: 02:45:10
(UTC+00:00)

N. Korean satellite - Pass Details

Date: 14 December 2021
Orbit: 447 x 491 km, 97.3° (Epoch: 23 January)

Event Time Altitude Azimuth Distance (km) Brightness Sun altitude
Rises 16:53:22 0° 205° (SSW) 2,489 11.0 -10.3°
Reaches altitude 10° 16:56:01 10° 227° (SW) 1,609 10.5 -10.7°
Maximum altitude 16:58:13 16° 267° (W) 1,284 9.8 -11.1°
Drops below altitude 10° 17:00:25 10° 307° (NW) 1,603 9.6 -11.4°
Sets 17:03:04 0° 330° (NNW) 2,475 10.3 -11.9°
